Weather History for Sharm El Sheikh, Egypt

Change the Weather History Date:

Monday, February 18, 2013

  Actual Average Record
Temperature  
Mean Temperature 68 °F -  
Max Temperature 77 °F 76 °F - ()
Min Temperature 59 °F 59 °F - ()
Cooling Degree Days 3    
Growing Degree Days 18 (Base 50)    
Moisture  
Dew Point 39 °F    
Average Humidity 37    
Maximum Humidity 48    
Minimum Humidity 29    
Precipitation  
Precipitation 0.00 in 0.00 in - ()
Sea Level Pressure  
Sea Level Pressure 29.89 in    
Wind  
Wind Speed 9 mph ()    
Max Wind Speed 16 mph    
Max Gust Speed -    
Visibility 6.2 miles    
Events      
T = Trace of Precipitation, MM = Missing Value Source: Averaged Metar Reports

Daily Weather History Graph

Daily Weather History Graph

Search for Another Location

Airport:

Trip Planner

Search our weather history database for the weather conditions in past years. The results will help you decide how hot, cold, wet, or windy it might be!

Date:

Astronomy

Feb. 18, 2013 Rise Set
Actual Time 6:17 AM EET 5:35 PM EET
Civil Twilight 5:53 AM EET 5:59 PM EET
Nautical Twilight 5:26 AM EET 6:26 PM EET
Astronomical Twilight 4:58 AM EET 6:54 PM EET
Moon 11:20 AM EET 12:25 AM EET
Length of Visible Light 12h 05m
Length of Day
11h 18m
First Quarter, 55% of the Moon is Illuminated
Feb 18
First Quarter
Feb 25
Full
Mar 4
Last Quarter
Mar 11
New
Mar 19
First Quarter

Hourly Weather History & Observations

Time (EET) Temp. Dew Point Humidity Pressure Visibility Wind Dir Wind Speed Gust Speed Precip Events Conditions
12:00 AM 62.6 °F 32.0 °F 32% 29.89 in - North 11.5 mph - N/A   Clear
1:00 AM 62.6 °F 33.8 °F 34% 29.89 in - Calm Calm - N/A   Clear
2:00 AM 60.8 °F 33.8 °F 36% 29.89 in - North 12.7 mph - N/A   Clear
3:00 AM 60.8 °F 35.6 °F 39% 29.89 in - North 11.5 mph - N/A   Clear
4:00 AM 60.8 °F 37.4 °F 42% 29.89 in - North 10.4 mph - N/A   Clear
5:00 AM 59.0 °F 37.4 °F 45% 29.86 in - North 9.2 mph - N/A   Clear
6:00 AM 59.0 °F 37.4 °F 45% 29.89 in 6.2 mi North 10.4 mph - N/A   Partly Cloudy
7:00 AM 59.0 °F 39.2 °F 48% 29.89 in 6.2 mi North 10.4 mph - N/A   Partly Cloudy
8:00 AM 64.4 °F 37.4 °F 37% 29.92 in - North 13.8 mph - N/A   Clear
9:00 AM 66.2 °F 39.2 °F 37% 29.92 in 6.2 mi NNE 12.7 mph - N/A   Scattered Clouds
10:00 AM 69.8 °F 39.2 °F 33% 29.92 in 6.2 mi NNE 12.7 mph - N/A   Scattered Clouds
11:00 AM 71.6 °F 39.2 °F 31% 29.92 in - NNE 10.4 mph - N/A   Clear
12:00 PM 75.2 °F 42.8 °F 31% 29.89 in - NNE 10.4 mph - N/A   Clear
1:00 PM 75.2 °F 41.0 °F 29% 29.86 in - NNE 8.1 mph - N/A   Clear
2:00 PM 77.0 °F 42.8 °F 29% 29.86 in - NNE 9.2 mph - N/A   Clear
3:00 PM 77.0 °F 42.8 °F 29% 29.86 in - NE 8.1 mph - N/A   Clear
4:00 PM 75.2 °F 44.6 °F 34% 29.86 in - NNE 11.5 mph - N/A   Clear
5:00 PM 71.6 °F 46.4 °F 41% 29.86 in - NNE 15.0 mph - N/A   Clear
6:00 PM 68.0 °F 46.4 °F 46% 29.89 in - North 11.5 mph - N/A   Clear
7:00 PM 68.0 °F 44.6 °F 43% 29.89 in - North 13.8 mph - N/A   Clear
8:00 PM 66.2 °F 42.8 °F 43% 29.92 in - North 11.5 mph - N/A   Clear
9:00 PM 66.2 °F 33.8 °F 30% 29.92 in - North 13.8 mph - N/A   Clear
10:00 PM 66.2 °F 33.8 °F 30% 29.92 in - North 15.0 mph - N/A   Clear
11:00 PM 64.4 °F 33.8 °F 32% 29.92 in - North 16.1 mph - N/A   Clear